Time,TemperatureF,DewpointF,PressureIn,WindDirection,WindDirectionDegrees,WindSpeedMPH,WindSpeedGustMPH,Humidity,HourlyPrecipIn,Conditions,Clouds,dailyrainin,SoftwareType,DateUTC
2013-10-28 00:00:00,39.2,20.6,30.00,NNE,27,6.0,6.0,47,0.00,CLR,SKC,0.00,WeatherDisplay:10.37,2013-10-28 06:00:00,
2013-10-28 00:05:00,39.1,20.5,30.01,NNE,26,3.5,3.5,47,0.00,CLR,SKC,0.00,WeatherDisplay:10.37,2013-10-28 06:05:00,
2013-10-28 00:10:00,39.1,20.5,30.01,North,9,4.6,4.6,47,0.00,CLR,SKC,0.00,WeatherDisplay:10.37,2013-10-28 06:10:00,
2013-10-28 00:16:00,38.9,20.4,30.01,NNE,21,5.8,5.8,47,0.00,CLR,SKC,0.00,WeatherDisplay:10.37,2013-10-28 06:16:00,
2013-10-28 00:21:00,38.9,19.9,30.01,NNE,32,6.9,6.9,46,0.00,CLR,SKC,0.00,WeatherDisplay:10.37,2013-10-28 06:21:00,
2013-10-28 00:26:00,38.7,20.2,30.02,NNE,28,4.6,4.6,47,0.00,CLR,SKC,0.00,WeatherDisplay:10.37,2013-10-28 06:26:00,
2013-10-28 00:31:00,38.6,20.1,30.01,NE,42,5.8,5.8,47,0.00,CLR,SKC,0.00,WeatherDisplay:10.37,2013-10-28 06:31:00,
2013-10-28 00:36:00,38.5,20.0,30.02,NE,41,4.6,4.6,47,0.00,CLR,SKC,0.00,WeatherDisplay:10.37,2013-10-28 06:36:00,
2013-10-28 00:41:00,38.4,19.9,30.02,NNE,28,3.5,3.5,47,0.00,CLR,SKC,0.00,WeatherDisplay:10.37,2013-10-28 06:41:00,
2013-10-28 00:46:00,38.3,19.8,30.02,NNE,29,3.5,3.5,47,0.00,CLR,SKC,0.00,WeatherDisplay:10.37,2013-10-28 06:46:00,
2013-10-28 00:51:00,38.2,19.7,30.01,NE,51,4.6,4.6,47,0.00,CLR,SKC,0.00,WeatherDisplay:10.37,2013-10-28 06:51:00,
2013-10-28 00:56:00,38.2,19.7,30.01,NNE,24,4.0,4.0,47,0.00,CLR,SKC,0.00,WeatherDisplay:10.37,2013-10-28 06:56:00,
2013-10-28 01:01:00,38.1,19.6,30.01,NNE,24,5.8,5.8,47,0.00,CLR,SKC,0.00,WeatherDisplay:10.37,2013-10-28 07:01:00,
2013-10-28 01:06:00,38.1,19.6,30.01,NNE,24,4.6,4.6,47,0.00,CLR,SKC,0.00,WeatherDisplay:10.37,2013-10-28 07:06:00,
2013-10-28 01:11:00,38.0,19.5,30.01,NE,34,5.8,5.8,47,0.00,CLR,SKC,0.00,WeatherDisplay:10.37,2013-10-28 07:11:00,
2013-10-28 01:16:00,37.9,19.4,30.01,NNE,32,3.5,3.5,47,0.00,CLR,SKC,0.00,WeatherDisplay:10.37,2013-10-28 07:16:00,
2013-10-28 01:21:00,37.9,19.4,30.01,NE,44,3.5,3.5,47,0.00,CLR,SKC,0.00,WeatherDisplay:10.37,2013-10-28 07:21:00,
2013-10-28 01:26:00,37.9,19.4,30.01,NNE,19,3.5,3.5,47,0.00,CLR,SKC,0.00,WeatherDisplay:10.37,2013-10-28 07:26:00,
2013-10-28 01:32:00,37.8,19.3,30.02,NNE,32,5.8,5.8,47,0.00,CLR,SKC,0.00,WeatherDisplay:10.37,2013-10-28 07:32:00,
2013-10-28 01:37:00,37.7,19.3,30.02,NNE,25,4.6,4.6,47,0.00,CLR,SKC,0.00,WeatherDisplay:10.37,2013-10-28 07:37:00,
2013-10-28 01:42:00,37.7,18.8,30.01,NNE,16,4.0,4.0,46,0.00,CLR,SKC,0.00,WeatherDisplay:10.37,2013-10-28 07:42:00,
2013-10-28 01:47:00,37.6,19.2,30.01,NNE,18,4.0,4.0,47,0.00,CLR,SKC,0.00,WeatherDisplay:10.37,2013-10-28 07:47:00,
2013-10-28 01:52:00,37.5,19.1,30.01,NNE,22,3.5,3.5,47,0.00,CLR,SKC,0.00,WeatherDisplay:10.37,2013-10-28 07:52:00,
2013-10-28 01:57:00,37.4,19.0,30.01,NNE,31,3.5,3.5,47,0.00,CLR,SKC,0.00,WeatherDisplay:10.37,2013-10-28 07:57:00,
2013-10-28 02:02:00,37.3,18.9,30.02,NE,38,3.5,3.5,47,0.00,CLR,SKC,0.00,WeatherDisplay:10.37,2013-10-28 08:02:00,
2013-10-28 02:07:00,37.3,18.9,30.01,NE,46,4.6,4.6,47,0.00,CLR,SKC,0.00,WeatherDisplay:10.37,2013-10-28 08:07:00,
2013-10-28 02:12:00,37.2,18.8,30.02,NE,41,3.5,3.5,47,0.00,CLR,SKC,0.00,WeatherDisplay:10.37,2013-10-28 08:12:00,
2013-10-28 02:17:00,37.2,18.8,30.02,NE,39,4.0,4.0,47,0.00,CLR,SKC,0.00,WeatherDisplay:10.37,2013-10-28 08:17:00,
2013-10-28 02:22:00,37.1,18.7,30.02,NNE,28,3.5,3.5,47,0.00,CLR,SKC,0.00,WeatherDisplay:10.37,2013-10-28 08:22:00,
2013-10-28 02:27:00,37.1,18.7,30.01,NE,38,4.6,4.6,47,0.00,CLR,SKC,0.00,WeatherDisplay:10.37,2013-10-28 08:27:00,
2013-10-28 02:32:00,37.1,18.7,30.02,NE,36,3.5,3.5,47,0.00,CLR,SKC,0.00,WeatherDisplay:10.37,2013-10-28 08:32:00,
2013-10-28 02:37:00,36.9,18.5,30.01,NNE,31,4.6,4.6,47,0.00,CLR,SKC,0.00,WeatherDisplay:10.37,2013-10-28 08:37:00,
2013-10-28 02:42:00,36.8,18.4,30.01,NNE,24,4.6,4.6,47,0.00,CLR,SKC,0.00,WeatherDisplay:10.37,2013-10-28 08:42:00,
2013-10-28 02:47:00,36.7,18.3,30.02,NNE,26,4.0,4.0,47,0.00,CLR,SKC,0.00,WeatherDisplay:10.37,2013-10-28 08:47:00,
2013-10-28 02:52:00,36.7,17.8,30.01,NNE,22,6.0,6.0,46,0.00,CLR,SKC,0.00,WeatherDisplay:10.37,2013-10-28 08:52:00,
2013-10-28 02:57:00,36.6,18.2,30.01,NNE,33,4.6,4.6,47,0.00,CLR,SKC,0.00,WeatherDisplay:10.37,2013-10-28 08:57:00,
2013-10-28 03:02:00,36.5,18.2,30.02,NNE,30,3.5,3.5,47,0.00,CLR,SKC,0.00,WeatherDisplay:10.37,2013-10-28 09:02:00,
2013-10-28 03:07:00,36.4,18.1,30.02,NE,44,6.0,6.0,47,0.00,CLR,SKC,0.00,WeatherDisplay:10.37,2013-10-28 09:07:00,
2013-10-28 03:12:00,36.3,17.5,30.02,NNE,28,4.6,4.6,46,0.00,CLR,SKC,0.00,WeatherDisplay:10.37,2013-10-28 09:12:00,
2013-10-28 03:17:00,36.1,17.8,30.02,NNE,31,5.8,5.8,47,0.00,CLR,SKC,0.00,WeatherDisplay:10.37,2013-10-28 09:17:00,
2013-10-28 03:22:00,36.0,17.7,30.01,NE,39,4.0,4.0,47,0.00,CLR,SKC,0.00,WeatherDisplay:10.37,2013-10-28 09:22:00,
2013-10-28 03:27:00,35.9,18.1,30.01,NNE,27,4.6,4.6,48,0.00,CLR,SKC,0.00,WeatherDisplay:10.37,2013-10-28 09:27:00,
2013-10-28 03:32:00,35.7,17.9,30.01,NE,37,4.6,4.6,48,0.00,CLR,SKC,0.00,WeatherDisplay:10.37,2013-10-28 09:32:00,
2013-10-28 03:37:00,35.5,17.7,30.02,NE,46,4.0,4.0,48,0.00,CLR,SKC,0.00,WeatherDisplay:10.37,2013-10-28 09:37:00,
2013-10-28 03:43:00,35.4,17.6,30.02,NE,38,3.0,7.0,48,0.00,CLR,SKC,0.00,WeatherDisplay:10.37,2013-10-28 09:43:00,
2013-10-28 03:48:00,35.3,18.0,30.02,NNE,21,5.8,5.8,49,0.00,CLR,SKC,0.00,WeatherDisplay:10.37,2013-10-28 09:48:00,
2013-10-28 03:53:00,35.2,17.9,30.01,NNE,27,4.6,4.6,49,0.00,CLR,SKC,0.00,WeatherDisplay:10.37,2013-10-28 09:53:00,
2013-10-28 03:58:00,35.0,17.7,30.01,NE,37,4.6,4.6,49,0.00,CLR,SKC,0.00,WeatherDisplay:10.37,2013-10-28 09:58:00,
2013-10-28 04:03:00,34.9,18.1,30.01,NNE,28,4.6,4.6,50,0.00,CLR,SKC,0.00,WeatherDisplay:10.37,2013-10-28 10:03:00,
2013-10-28 04:09:00,34.7,17.9,30.01,NNE,29,4.6,4.6,50,0.00,CLR,SKC,0.00,WeatherDisplay:10.37,2013-10-28 10:09:00,
2013-10-28 04:14:00,34.5,18.2,30.01,North,5,5.8,5.8,51,0.00,CLR,SKC,0.00,WeatherDisplay:10.37,2013-10-28 10:14:00,
2013-10-28 04:19:00,34.4,18.1,30.01,NE,38,5.8,5.8,51,0.00,CLR,SKC,0.00,WeatherDisplay:10.37,2013-10-28 10:19:00,
2013-10-28 04:24:00,34.3,18.0,30.01,NNE,31,3.0,5.0,51,0.00,CLR,SKC,0.00,WeatherDisplay:10.37,2013-10-28 10:24:00,
2013-10-28 04:29:00,34.2,17.9,30.02,NNE,17,6.0,6.0,51,0.00,CLR,SKC,0.00,WeatherDisplay:10.37,2013-10-28 10:29:00,
2013-10-28 04:35:00,34.0,18.2,30.02,NE,36,5.8,5.8,52,0.00,CLR,SKC,0.00,WeatherDisplay:10.37,2013-10-28 10:35:00,
2013-10-28 04:40:00,33.9,18.1,30.02,North,11,4.6,4.6,52,0.00,CLR,SKC,0.00,WeatherDisplay:10.37,2013-10-28 10:40:00,
2013-10-28 04:45:00,33.8,18.5,30.02,NNE,30,3.5,3.5,53,0.00,CLR,SKC,0.00,WeatherDisplay:10.37,2013-10-28 10:45:00,
2013-10-28 04:50:00,33.8,18.0,30.02,NNE,32,4.6,4.6,52,0.00,CLR,SKC,0.00,WeatherDisplay:10.37,2013-10-28 10:50:00,
2013-10-28 04:55:00,33.7,17.9,30.02,NE,44,4.6,4.6,52,0.00,CLR,SKC,0.00,WeatherDisplay:10.37,2013-10-28 10:55:00,
2013-10-28 05:00:00,33.7,17.9,30.02,NE,39,4.6,4.6,52,0.00,CLR,SKC,0.00,WeatherDisplay:10.37,2013-10-28 11:00:00,
2013-10-28 05:06:00,33.6,18.3,30.02,NE,55,3.5,3.5,53,0.00,CLR,SKC,0.00,WeatherDisplay:10.37,2013-10-28 11:06:00,
2013-10-28 05:11:00,33.6,17.8,30.02,NE,46,4.6,4.6,52,0.00,CLR,SKC,0.00,WeatherDisplay:10.37,2013-10-28 11:11:00,
2013-10-28 05:16:00,33.6,17.8,30.02,NNE,28,5.0,5.0,52,0.00,CLR,SKC,0.00,WeatherDisplay:10.37,2013-10-28 11:16:00,
2013-10-28 05:21:00,33.6,17.8,30.02,NNE,26,3.5,3.5,52,0.00,CLR,SKC,0.00,WeatherDisplay:10.37,2013-10-28 11:21:00,
2013-10-28 05:26:00,33.6,17.8,30.02,NNE,29,3.5,3.5,52,0.00,CLR,SKC,0.00,WeatherDisplay:10.37,2013-10-28 11:26:00,
2013-10-28 05:31:00,33.6,17.8,30.02,NNE,16,3.5,3.5,52,0.00,CLR,SKC,0.00,WeatherDisplay:10.37,2013-10-28 11:31:00,
2013-10-28 05:36:00,33.5,17.3,30.01,NNE,26,3.5,3.5,51,0.00,CLR,SKC,0.00,WeatherDisplay:10.37,2013-10-28 11:36:00,
2013-10-28 05:41:00,33.5,17.3,30.02,NE,40,3.5,3.5,51,0.00,CLR,SKC,0.00,WeatherDisplay:10.37,2013-10-28 11:41:00,
2013-10-28 05:46:00,33.4,17.2,30.02,NNE,25,5.8,5.8,51,0.00,CLR,SKC,0.00,WeatherDisplay:10.37,2013-10-28 11:46:00,
2013-10-28 05:51:00,33.4,17.2,30.02,NNE,32,3.5,3.5,51,0.00,CLR,SKC,0.00,WeatherDisplay:10.37,2013-10-28 11:51:00,
2013-10-28 05:56:00,33.4,17.2,30.02,NE,34,3.5,3.5,51,0.00,CLR,SKC,0.00,WeatherDisplay:10.37,2013-10-28 11:56:00,
2013-10-28 06:01:00,33.3,17.1,30.02,NE,42,4.6,4.6,51,0.00,CLR,SKC,0.00,WeatherDisplay:10.37,2013-10-28 12:01:00,
2013-10-28 06:06:00,33.2,17.0,30.02,NNE,22,4.6,4.6,51,0.00,CLR,SKC,0.00,WeatherDisplay:10.37,2013-10-28 12:06:00,
2013-10-28 06:11:00,33.1,17.4,30.02,NE,38,5.8,5.8,52,0.00,CLR,SKC,0.00,WeatherDisplay:10.37,2013-10-28 12:11:00,
2013-10-28 06:16:00,33.0,16.8,30.02,NE,43,4.6,4.6,51,0.00,CLR,SKC,0.00,WeatherDisplay:10.37,2013-10-28 12:16:00,
2013-10-28 06:21:00,33.0,16.8,30.02,NE,37,3.5,3.5,51,0.00,CLR,SKC,0.00,WeatherDisplay:10.37,2013-10-28 12:21:00,
2013-10-28 06:26:00,33.0,17.3,30.02,NNE,24,3.5,3.5,52,0.00,CLR,SKC,0.00,WeatherDisplay:10.37,2013-10-28 12:26:00,
2013-10-28 06:31:00,32.9,17.2,30.02,NNE,28,3.5,3.5,52,0.00,CLR,SKC,0.00,WeatherDisplay:10.37,2013-10-28 12:31:00,
2013-10-28 06:36:00,32.8,17.1,30.02,NNE,31,3.5,3.5,52,0.00,CLR,SKC,0.00,WeatherDisplay:10.37,2013-10-28 12:36:00,
2013-10-28 06:41:00,32.6,17.3,30.02,NE,54,5.8,5.8,53,0.00,CLR,SKC,0.00,WeatherDisplay:10.37,2013-10-28 12:41:00,
2013-10-28 06:46:00,32.4,17.6,30.02,NNE,23,4.0,4.0,54,0.00,CLR,SKC,0.00,WeatherDisplay:10.37,2013-10-28 12:46:00,
2013-10-28 06:51:00,32.3,17.5,30.02,NNE,19,3.5,3.5,54,0.00,CLR,SKC,0.00,WeatherDisplay:10.37,2013-10-28 12:51:00,
2013-10-28 06:57:00,32.1,17.7,30.02,NE,35,4.6,4.6,55,0.00,CLR,SKC,0.00,WeatherDisplay:10.37,2013-10-28 12:57:00,
2013-10-28 07:02:00,32.2,17.4,30.02,NE,35,3.5,3.5,54,0.00,CLR,SKC,0.00,WeatherDisplay:10.37,2013-10-28 13:02:00,
2013-10-28 07:07:00,32.3,17.5,30.02,NNE,27,4.6,4.6,54,0.00,CLR,SKC,0.00,WeatherDisplay:10.37,2013-10-28 13:07:00,
2013-10-28 07:12:00,32.4,17.6,30.02,NE,34,4.6,4.6,54,0.00,CLR,SKC,0.00,WeatherDisplay:10.37,2013-10-28 13:12:00,
2013-10-28 07:17:00,32.3,17.1,30.02,NNE,32,3.5,3.5,53,0.00,CLR,SKC,0.00,WeatherDisplay:10.37,2013-10-28 13:17:00,
2013-10-28 07:23:00,32.3,17.1,30.02,NE,35,3.0,6.0,53,0.00,CLR,SKC,0.00,WeatherDisplay:10.37,2013-10-28 13:23:00,
2013-10-28 07:28:00,32.3,17.1,30.02,NE,39,4.6,4.6,53,0.00,CLR,SKC,0.00,WeatherDisplay:10.37,2013-10-28 13:28:00,
2013-10-28 07:33:00,32.3,17.1,30.02,NE,53,4.6,4.6,53,0.00,CLR,SKC,0.00,WeatherDisplay:10.37,2013-10-28 13:33:00,
2013-10-28 07:38:00,32.2,17.0,30.02,NNE,19,3.5,3.5,53,0.00,CLR,SKC,0.00,WeatherDisplay:10.37,2013-10-28 13:38:00,
2013-10-28 07:43:00,32.2,17.0,30.01,NNE,31,4.6,4.6,53,0.00,CLR,SKC,0.00,WeatherDisplay:10.37,2013-10-28 13:43:00,
2013-10-28 07:48:00,32.1,16.9,30.02,NE,45,3.5,3.5,53,0.00,CLR,SKC,0.00,WeatherDisplay:10.37,2013-10-28 13:48:00,
2013-10-28 07:53:00,32.1,16.9,30.01,NE,34,2.0,6.0,53,0.00,CLR,SKC,0.00,WeatherDisplay:10.37,2013-10-28 13:53:00,
2013-10-28 07:58:00,32.1,16.9,30.02,NNE,28,3.0,7.0,53,0.00,CLR,SKC,0.00,WeatherDisplay:10.37,2013-10-28 13:58:00,
2013-10-28 08:03:00,32.0,16.8,30.02,NNE,26,3.0,6.0,53,0.00,CLR,SKC,0.00,WeatherDisplay:10.37,2013-10-28 14:03:00,
2013-10-28 08:08:00,32.0,16.8,30.02,NNE,27,3.5,3.5,53,0.00,CLR,SKC,0.00,WeatherDisplay:10.37,2013-10-28 14:08:00,
2013-10-28 08:13:00,31.9,16.7,30.02,NNE,25,2.0,7.0,53,0.00,CLR,SKC,0.00,WeatherDisplay:10.37,2013-10-28 14:13:00,
2013-10-28 08:18:00,31.9,16.7,30.02,NNE,27,4.6,4.6,53,0.00,CLR,SKC,0.00,WeatherDisplay:10.37,2013-10-28 14:18:00,
2013-10-28 08:23:00,31.9,16.7,30.02,NNE,27,4.6,4.6,53,0.00,CLR,SKC,0.00,WeatherDisplay:10.37,2013-10-28 14:23:00,
2013-10-28 08:33:00,31.9,16.7,30.02,NNE,26,2.0,5.0,53,0.00,CLR,SKC,0.00,WeatherDisplay:10.37,2013-10-28 14:33:00,
2013-10-28 08:38:00,31.9,16.7,30.02,NE,40,4.6,4.6,53,0.00,CLR,SKC,0.00,WeatherDisplay:10.37,2013-10-28 14:38:00,
2013-10-28 08:43:00,31.9,16.7,30.03,NNE,31,2.0,6.0,53,0.00,CLR,SKC,0.00,WeatherDisplay:10.37,2013-10-28 14:43:00,
2013-10-28 08:48:00,31.9,16.2,30.03,NNE,30,3.5,3.5,52,0.00,CLR,SKC,0.00,WeatherDisplay:10.37,2013-10-28 14:48:00,
2013-10-28 08:53:00,31.9,16.2,30.03,NNE,21,3.5,3.5,52,0.00,CLR,SKC,0.00,WeatherDisplay:10.37,2013-10-28 14:53:00,
2013-10-28 08:58:00,31.9,16.2,30.03,NE,40,5.0,5.0,52,0.00,CLR,SKC,0.00,WeatherDisplay:10.37,2013-10-28 14:58:00,
2013-10-28 09:03:00,31.9,16.2,30.03,NNE,15,4.6,4.6,52,0.00,CLR,SKC,0.00,WeatherDisplay:10.37,2013-10-28 15:03:00,
2013-10-28 09:08:00,31.9,16.2,30.03,NE,39,3.5,3.5,52,0.00,CLR,SKC,0.00,WeatherDisplay:10.37,2013-10-28 15:08:00,
2013-10-28 09:13:00,31.9,16.2,30.03,NE,36,4.6,4.6,52,0.00,CLR,SKC,0.00,WeatherDisplay:10.37,2013-10-28 15:13:00,
2013-10-28 09:18:00,31.8,16.2,30.03,NNE,32,3.5,3.5,52,0.00,CLR,SKC,0.00,WeatherDisplay:10.37,2013-10-28 15:18:00,
2013-10-28 09:24:00,31.8,16.2,30.03,NNE,22,3.5,3.5,52,0.00,CLR,SKC,0.00,WeatherDisplay:10.37,2013-10-28 15:24:00,
2013-10-28 09:29:00,31.8,16.2,30.03,NNE,29,3.5,3.5,52,0.00,CLR,SKC,0.00,WeatherDisplay:10.37,2013-10-28 15:29:00,
2013-10-28 09:34:00,31.8,16.6,30.03,NNE,28,3.5,3.5,53,0.00,CLR,SKC,0.00,WeatherDisplay:10.37,2013-10-28 15:34:00,
2013-10-28 09:39:00,31.8,16.2,30.03,NE,35,3.5,3.5,52,0.00,CLR,SKC,0.00,WeatherDisplay:10.37,2013-10-28 15:39:00,
2013-10-28 09:44:00,31.9,16.2,30.03,NNE,33,4.6,4.6,52,0.00,CLR,SKC,0.00,WeatherDisplay:10.37,2013-10-28 15:44:00,
2013-10-28 09:49:00,31.9,16.2,30.03,NNE,28,3.5,3.5,52,0.00,CLR,SKC,0.00,WeatherDisplay:10.37,2013-10-28 15:49:00,
2013-10-28 09:55:00,32.0,16.3,30.03,NNE,27,3.5,3.5,52,0.00,CLR,SKC,0.00,WeatherDisplay:10.37,2013-10-28 15:55:00,
2013-10-28 10:00:00,32.0,16.3,30.03,NNE,29,3.5,3.5,52,0.00,CLR,SKC,0.00,WeatherDisplay:10.37,2013-10-28 16:00:00,
2013-10-28 10:05:00,32.0,16.3,30.03,NNE,23,4.6,4.6,52,0.00,CLR,SKC,0.00,WeatherDisplay:10.37,2013-10-28 16:05:00,
2013-10-28 10:10:00,32.1,16.0,30.03,NE,35,3.5,3.5,51,0.00,CLR,SKC,0.00,WeatherDisplay:10.37,2013-10-28 16:10:00,
2013-10-28 10:15:00,32.2,16.1,30.03,North,355,3.5,3.5,51,0.00,CLR,SKC,0.00,WeatherDisplay:10.37,2013-10-28 16:15:00,
2013-10-28 10:19:00,32.3,16.2,30.03,NNE,30,3.5,3.5,51,0.00,CLR,SKC,0.00,WeatherDisplay:10.37,2013-10-28 16:19:00,
2013-10-28 10:24:00,32.3,16.2,30.03,NNE,26,4.0,4.0,51,0.00,CLR,SKC,0.00,WeatherDisplay:10.37,2013-10-28 16:24:00,
2013-10-28 10:29:00,32.3,16.2,30.04,North,5,4.6,4.6,51,0.00,CLR,SKC,0.00,WeatherDisplay:10.37,2013-10-28 16:29:00,
2013-10-28 10:34:00,32.3,16.2,30.04,NNE,32,3.5,3.5,51,0.00,CLR,SKC,0.00,WeatherDisplay:10.37,2013-10-28 16:34:00,
2013-10-28 10:39:00,32.4,16.3,30.04,NNE,30,6.9,6.9,51,0.00,CLR,SKC,0.00,WeatherDisplay:10.37,2013-10-28 16:39:00,
2013-10-28 10:44:00,32.3,16.2,30.04,NNE,28,5.8,5.8,51,0.00,CLR,SKC,0.00,WeatherDisplay:10.37,2013-10-28 16:44:00,
2013-10-28 10:49:00,32.4,16.7,30.03,NE,44,3.5,3.5,52,0.00,CLR,SKC,0.00,WeatherDisplay:10.37,2013-10-28 16:49:00,
2013-10-28 10:54:00,32.5,16.4,30.03,NNE,32,5.8,5.8,51,0.00,CLR,SKC,0.00,WeatherDisplay:10.37,2013-10-28 16:54:00,
2013-10-28 10:59:00,32.5,16.8,30.03,NNE,30,4.0,4.0,52,0.00,CLR,SKC,0.00,WeatherDisplay:10.37,2013-10-28 16:59:00,
2013-10-28 11:04:00,32.6,16.4,30.03,NNE,25,4.6,4.6,51,0.00,CLR,SKC,0.00,WeatherDisplay:10.37,2013-10-28 17:04:00,
2013-10-28 11:09:00,32.8,16.2,30.03,NNE,32,4.6,4.6,50,0.00,CLR,SKC,0.00,WeatherDisplay:10.37,2013-10-28 17:09:00,
2013-10-28 11:14:00,32.9,16.3,30.03,NNE,28,6.9,6.9,50,0.00,CLR,SKC,0.00,WeatherDisplay:10.37,2013-10-28 17:14:00,
2013-10-28 11:19:00,33.0,16.8,30.03,NNE,29,5.8,5.8,51,0.00,CLR,SKC,0.00,WeatherDisplay:10.37,2013-10-28 17:19:00,
2013-10-28 11:24:00,33.4,16.7,30.02,NNE,33,4.6,4.6,50,0.00,CLR,SKC,0.00,WeatherDisplay:10.37,2013-10-28 17:24:00,
2013-10-28 11:29:00,33.6,16.5,30.02,NE,42,5.0,5.0,49,0.00,CLR,SKC,0.00,WeatherDisplay:10.37,2013-10-28 17:29:00,
2013-10-28 11:34:00,33.8,16.6,30.02,NNE,20,6.9,6.9,49,0.00,CLR,SKC,0.00,WeatherDisplay:10.37,2013-10-28 17:34:00,
2013-10-28 11:39:00,33.8,16.6,30.03,NNE,30,3.5,3.5,49,0.00,CLR,SKC,0.00,WeatherDisplay:10.37,2013-10-28 17:39:00,
2013-10-28 11:44:00,33.8,16.6,30.02,NE,44,5.8,5.8,49,0.00,CLR,SKC,0.00,WeatherDisplay:10.37,2013-10-28 17:44:00,
2013-10-28 11:49:00,33.7,17.0,30.02,NNE,22,4.6,4.6,50,0.00,CLR,SKC,0.00,WeatherDisplay:10.37,2013-10-28 17:49:00,
2013-10-28 11:55:00,33.6,16.5,30.02,NNE,31,3.0,7.0,49,0.00,CLR,SKC,0.00,WeatherDisplay:10.37,2013-10-28 17:55:00,
2013-10-28 12:00:00,33.6,16.4,30.02,NNE,30,2.0,7.0,49,0.00,CLR,SKC,0.00,WeatherDisplay:10.37,2013-10-28 18:00:00,
2013-10-28 12:05:00,33.7,16.5,30.01,NNE,31,3.5,3.5,49,0.00,CLR,SKC,0.00,WeatherDisplay:10.37,2013-10-28 18:05:00,
2013-10-28 12:10:00,33.8,16.6,30.01,NE,38,3.5,4.2,49,0.00,CLR,SKC,0.00,WeatherDisplay:10.37,2013-10-28 18:10:00,
2013-10-28 12:15:00,33.8,16.2,30.01,NNE,26,6.9,6.9,48,0.00,CLR,SKC,0.00,WeatherDisplay:10.37,2013-10-28 18:15:00,
2013-10-28 12:20:00,33.7,16.1,30.01,NE,35,5.8,5.8,48,0.00,CLR,SKC,0.00,WeatherDisplay:10.37,2013-10-28 18:20:00,
2013-10-28 12:26:00,33.7,16.5,30.01,NNE,19,6.9,6.9,49,0.00,CLR,SKC,0.00,WeatherDisplay:10.37,2013-10-28 18:26:00,
2013-10-28 12:31:00,33.9,16.7,30.01,NNE,25,3.5,3.5,49,0.00,CLR,SKC,0.00,WeatherDisplay:10.37,2013-10-28 18:31:00,
2013-10-28 12:36:00,34.3,16.6,30.01,NNE,32,4.6,4.6,48,0.00,CLR,SKC,0.00,WeatherDisplay:10.37,2013-10-28 18:36:00,
2013-10-28 12:41:00,34.2,16.5,30.01,NE,38,4.6,4.6,48,0.00,CLR,SKC,0.00,WeatherDisplay:10.37,2013-10-28 18:41:00,
2013-10-28 12:46:00,34.2,16.5,30.01,NNE,21,5.8,5.8,48,0.00,CLR,SKC,0.00,WeatherDisplay:10.37,2013-10-28 18:46:00,
2013-10-28 12:51:00,34.2,16.5,30.00,NNE,21,3.5,3.5,48,0.00,CLR,SKC,0.00,WeatherDisplay:10.37,2013-10-28 18:51:00,
2013-10-28 12:56:00,34.5,16.8,30.00,NNE,20,5.8,5.8,48,0.00,CLR,SKC,0.00,WeatherDisplay:10.37,2013-10-28 18:56:00,
2013-10-28 13:01:00,34.1,15.9,30.00,NNE,13,6.0,6.0,47,0.00,CLR,SKC,0.00,WeatherDisplay:10.37,2013-10-28 19:01:00,
2013-10-28 13:06:00,33.8,16.2,30.00,NE,34,5.8,5.8,48,0.00,CLR,SKC,0.00,WeatherDisplay:10.37,2013-10-28 19:06:00,
2013-10-28 13:11:00,34.0,16.8,30.00,NNE,29,4.6,4.6,49,0.00,CLR,SKC,0.00,WeatherDisplay:10.37,2013-10-28 19:11:00,
2013-10-28 13:16:00,33.9,16.3,30.00,NNE,31,4.6,4.6,48,0.00,CLR,SKC,0.00,WeatherDisplay:10.37,2013-10-28 19:16:00,
2013-10-28 13:21:00,33.8,16.2,29.99,NNE,26,6.9,6.9,48,0.00,CLR,SKC,0.00,WeatherDisplay:10.37,2013-10-28 19:21:00,
2013-10-28 13:26:00,33.7,16.1,29.99,NE,34,4.6,4.6,48,0.00,CLR,SKC,0.00,WeatherDisplay:10.37,2013-10-28 19:26:00,
2013-10-28 13:31:00,33.7,16.1,29.99,NE,51,6.0,6.0,48,0.00,CLR,SKC,0.00,WeatherDisplay:10.37,2013-10-28 19:31:00,
2013-10-28 13:36:00,33.6,16.0,29.99,NNE,28,5.8,5.8,48,0.00,CLR,SKC,0.00,WeatherDisplay:10.37,2013-10-28 19:36:00,
2013-10-28 13:41:00,33.5,15.9,29.98,NE,46,5.8,5.8,48,0.00,CLR,SKC,0.00,WeatherDisplay:10.37,2013-10-28 19:41:00,
2013-10-28 13:46:00,33.4,15.8,29.98,NE,37,3.5,3.5,48,0.00,CLR,SKC,0.00,WeatherDisplay:10.37,2013-10-28 19:46:00,
2013-10-28 13:51:00,33.3,15.7,29.98,NE,48,5.8,5.8,48,0.00,CLR,SKC,0.00,WeatherDisplay:10.37,2013-10-28 19:51:00,
2013-10-28 13:56:00,33.2,16.1,29.98,NNE,28,4.0,4.0,49,0.00,CLR,SKC,0.00,WeatherDisplay:10.37,2013-10-28 19:56:00,
2013-10-28 14:01:00,33.2,15.6,29.98,NE,34,5.8,5.8,48,0.00,CLR,SKC,0.00,WeatherDisplay:10.37,2013-10-28 20:01:00,
2013-10-28 14:07:00,33.0,15.9,29.98,NE,40,3.5,3.5,49,0.00,CLR,SKC,0.00,WeatherDisplay:10.37,2013-10-28 20:07:00,
2013-10-28 14:13:00,33.3,16.2,29.97,NE,38,3.5,3.5,49,0.00,CLR,SKC,0.00,WeatherDisplay:10.37,2013-10-28 20:13:00,
2013-10-28 14:18:00,33.3,15.7,29.98,NNE,25,4.6,4.6,48,0.00,CLR,SKC,0.00,WeatherDisplay:10.37,2013-10-28 20:18:00,
2013-10-28 14:23:00,33.3,15.7,29.97,NNE,24,4.6,4.6,48,0.00,CLR,SKC,0.00,WeatherDisplay:10.37,2013-10-28 20:23:00,
2013-10-28 14:28:00,33.3,15.7,29.98,NE,36,3.5,3.5,48,0.00,CLR,SKC,0.00,WeatherDisplay:10.37,2013-10-28 20:28:00,
2013-10-28 14:33:00,33.3,15.7,29.98,NE,34,4.6,4.6,48,0.00,CLR,SKC,0.00,WeatherDisplay:10.37,2013-10-28 20:33:00,
2013-10-28 14:38:00,33.1,15.5,29.97,NE,41,3.5,3.5,48,0.00,CLR,SKC,0.00,WeatherDisplay:10.37,2013-10-28 20:38:00,
2013-10-28 14:43:00,33.2,15.6,29.98,NNE,32,5.8,5.8,48,0.00,CLR,SKC,0.00,WeatherDisplay:10.37,2013-10-28 20:43:00,
2013-10-28 14:48:00,33.1,15.5,29.98,NE,34,5.0,5.0,48,0.00,CLR,SKC,0.00,WeatherDisplay:10.37,2013-10-28 20:48:00,
2013-10-28 14:53:00,32.9,15.3,29.98,NNE,31,3.5,3.5,48,0.00,CLR,SKC,0.00,WeatherDisplay:10.37,2013-10-28 20:53:00,
2013-10-28 14:58:00,32.8,15.2,29.98,NNE,26,5.0,5.0,48,0.00,CLR,SKC,0.00,WeatherDisplay:10.37,2013-10-28 20:58:00,
2013-10-28 15:03:00,32.6,15.1,29.98,NNE,32,5.8,5.8,48,0.00,CLR,SKC,0.00,WeatherDisplay:10.37,2013-10-28 21:03:00,
2013-10-28 15:09:00,32.6,15.5,29.98,NNE,27,3.5,3.5,49,0.00,CLR,SKC,0.00,WeatherDisplay:10.37,2013-10-28 21:09:00,
2013-10-28 15:14:00,32.6,15.5,29.97,NE,36,4.0,4.0,49,0.00,CLR,SKC,0.00,WeatherDisplay:10.37,2013-10-28 21:14:00,
2013-10-28 15:18:00,32.7,15.6,29.97,NNE,30,3.5,3.5,49,0.00,CLR,SKC,0.00,WeatherDisplay:10.37,2013-10-28 21:18:00,
2013-10-28 15:23:00,32.7,15.6,29.97,NNE,14,5.0,5.0,49,0.00,CLR,SKC,0.00,WeatherDisplay:10.37,2013-10-28 21:23:00,
2013-10-28 15:28:00,32.8,15.7,29.97,NE,34,3.5,3.5,49,0.00,CLR,SKC,0.00,WeatherDisplay:10.37,2013-10-28 21:28:00,
2013-10-28 15:33:00,32.8,15.7,29.97,NNE,13,5.8,5.8,49,0.00,CLR,SKC,0.00,WeatherDisplay:10.37,2013-10-28 21:33:00,
2013-10-28 15:38:00,32.6,15.1,29.98,NNE,30,3.5,3.5,48,0.00,CLR,SKC,0.00,WeatherDisplay:10.37,2013-10-28 21:38:00,
2013-10-28 15:43:00,32.7,15.6,29.98,NE,34,4.6,4.6,49,0.00,CLR,SKC,0.00,WeatherDisplay:10.37,2013-10-28 21:43:00,
2013-10-28 15:48:00,32.5,15.0,29.97,NNE,17,4.6,4.6,48,0.00,CLR,SKC,0.00,WeatherDisplay:10.37,2013-10-28 21:48:00,
2013-10-28 15:53:00,32.5,15.4,29.98,NNE,26,5.8,5.8,49,0.00,CLR,SKC,0.00,WeatherDisplay:10.37,2013-10-28 21:53:00,
2013-10-28 15:58:00,32.3,15.3,29.98,North,11,3.5,3.5,49,0.00,CLR,SKC,0.00,WeatherDisplay:10.37,2013-10-28 21:58:00,
2013-10-28 16:03:00,32.2,14.7,29.98,NNE,33,4.6,4.6,48,0.00,CLR,SKC,0.00,WeatherDisplay:10.37,2013-10-28 22:03:00,
2013-10-28 16:08:00,32.2,14.7,29.98,NE,36,4.6,4.6,48,0.00,CLR,SKC,0.00,WeatherDisplay:10.37,2013-10-28 22:08:00,
2013-10-28 16:13:00,32.3,14.8,29.99,NNE,22,6.9,6.9,48,0.00,CLR,SKC,0.00,WeatherDisplay:10.37,2013-10-28 22:13:00,
2013-10-28 16:18:00,32.3,15.3,29.98,NNE,26,3.5,3.5,49,0.00,CLR,SKC,0.00,WeatherDisplay:10.37,2013-10-28 22:18:00,
2013-10-28 16:23:00,32.3,15.3,29.98,NNE,30,3.5,3.5,49,0.00,CLR,SKC,0.00,WeatherDisplay:10.37,2013-10-28 22:23:00,
2013-10-28 16:28:00,32.3,15.3,29.98,NNE,28,5.8,5.8,49,0.00,CLR,SKC,0.00,WeatherDisplay:10.37,2013-10-28 22:28:00,
2013-10-28 16:33:00,32.3,14.8,29.99,NE,48,3.5,3.5,48,0.00,CLR,SKC,0.00,WeatherDisplay:10.37,2013-10-28 22:33:00,
2013-10-28 16:38:00,32.3,14.8,29.98,NNE,32,3.5,3.5,48,0.00,CLR,SKC,0.00,WeatherDisplay:10.37,2013-10-28 22:38:00,
2013-10-28 16:44:00,32.1,14.6,29.98,NE,40,4.6,4.6,48,0.00,CLR,SKC,0.00,WeatherDisplay:10.37,2013-10-28 22:44:00,
2013-10-28 16:49:00,32.1,15.1,29.98,NE,36,3.5,3.5,49,0.00,CLR,SKC,0.00,WeatherDisplay:10.37,2013-10-28 22:49:00,
2013-10-28 16:54:00,32.1,14.6,29.98,NE,38,4.6,4.6,48,0.00,CLR,SKC,0.00,WeatherDisplay:10.37,2013-10-28 22:54:00,
2013-10-28 16:59:00,32.1,14.6,29.99,NNE,33,2.0,5.0,48,0.00,CLR,SKC,0.00,WeatherDisplay:10.37,2013-10-28 22:59:00,
2013-10-28 17:04:00,32.0,14.5,29.99,NE,35,3.0,5.0,48,0.00,CLR,SKC,0.00,WeatherDisplay:10.37,2013-10-28 23:04:00,
2013-10-28 17:10:00,32.0,15.0,29.99,NE,36,3.5,3.5,49,0.00,CLR,SKC,0.00,WeatherDisplay:10.37,2013-10-28 23:10:00,
2013-10-28 17:15:00,31.9,14.9,29.99,NNE,26,3.5,3.5,49,0.00,CLR,SKC,0.00,WeatherDisplay:10.37,2013-10-28 23:15:00,
2013-10-28 17:21:00,31.8,14.8,29.99,NE,34,5.8,5.8,49,0.00,CLR,SKC,0.00,WeatherDisplay:10.37,2013-10-28 23:21:00,
2013-10-28 17:26:00,31.7,14.7,29.99,NE,34,3.5,3.5,49,0.00,CLR,SKC,0.00,WeatherDisplay:10.37,2013-10-28 23:26:00,
2013-10-28 17:32:00,31.7,14.7,29.99,NNE,23,4.6,4.6,49,0.00,CLR,SKC,0.00,WeatherDisplay:10.37,2013-10-28 23:32:00,
2013-10-28 17:37:00,31.6,15.1,29.99,NE,38,3.5,3.5,50,0.00,CLR,SKC,0.00,WeatherDisplay:10.37,2013-10-28 23:37:00,
2013-10-28 17:43:00,31.5,15.4,29.99,NE,37,3.5,3.5,51,0.00,CLR,SKC,0.00,WeatherDisplay:10.37,2013-10-28 23:43:00,
2013-10-28 17:48:00,31.4,14.9,29.99,NNE,31,3.5,3.5,50,0.00,CLR,SKC,0.00,WeatherDisplay:10.37,2013-10-28 23:48:00,
2013-10-28 17:53:00,31.2,14.7,30.00,NE,35,3.5,3.5,50,0.00,CLR,SKC,0.00,WeatherDisplay:10.37,2013-10-28 23:53:00,
2013-10-28 17:58:00,31.1,14.6,30.00,NNE,17,3.5,3.5,50,0.00,CLR,SKC,0.00,WeatherDisplay:10.37,2013-10-28 23:58:00,
2013-10-28 18:03:00,31.0,15.0,30.00,NNE,31,3.5,3.5,51,0.00,CLR,SKC,0.00,WeatherDisplay:10.37,2013-10-29 00:03:00,
2013-10-28 18:08:00,30.9,14.9,30.00,NNE,26,3.5,3.5,51,0.00,CLR,SKC,0.00,WeatherDisplay:10.37,2013-10-29 00:08:00,
2013-10-28 18:13:00,30.8,14.8,30.00,NNE,26,5.8,5.8,51,0.00,CLR,SKC,0.00,WeatherDisplay:10.37,2013-10-29 00:13:00,
2013-10-28 18:19:00,30.7,14.7,30.00,NNE,30,3.5,3.5,51,0.00,CLR,SKC,0.00,WeatherDisplay:10.37,2013-10-29 00:19:00,
2013-10-28 18:24:00,30.7,14.7,30.00,NE,41,4.6,4.6,51,0.00,CLR,SKC,0.00,WeatherDisplay:10.37,2013-10-29 00:24:00,
2013-10-28 18:29:00,30.6,14.6,30.00,NE,41,3.5,3.5,51,0.00,CLR,SKC,0.00,WeatherDisplay:10.37,2013-10-29 00:29:00,
2013-10-28 18:34:00,30.6,14.6,30.00,NNE,33,3.5,3.5,51,0.00,CLR,SKC,0.00,WeatherDisplay:10.37,2013-10-29 00:34:00,
2013-10-28 18:39:00,30.5,14.5,30.01,NNE,33,3.5,3.5,51,0.00,CLR,SKC,0.00,WeatherDisplay:10.37,2013-10-29 00:39:00,
2013-10-28 18:44:00,30.5,14.9,30.01,NNE,33,3.5,3.5,52,0.00,CLR,SKC,0.00,WeatherDisplay:10.37,2013-10-29 00:44:00,
2013-10-28 18:49:00,30.4,14.4,30.01,NNE,21,3.5,3.5,51,0.00,CLR,SKC,0.00,WeatherDisplay:10.37,2013-10-29 00:49:00,
2013-10-28 18:54:00,30.3,14.8,30.01,NE,41,3.5,3.5,52,0.00,CLR,SKC,0.00,WeatherDisplay:10.37,2013-10-29 00:54:00,
2013-10-28 18:59:00,30.3,14.8,30.01,NNE,28,5.8,5.8,52,0.00,CLR,SKC,0.00,WeatherDisplay:10.37,2013-10-29 00:59:00,
2013-10-28 19:04:00,30.2,14.7,30.01,NE,35,2.3,2.4,52,0.00,CLR,SKC,0.00,WeatherDisplay:10.37,2013-10-29 01:04:00,
2013-10-28 19:09:00,30.1,14.1,30.01,NNE,33,4.6,4.6,51,0.00,CLR,SKC,0.00,WeatherDisplay:10.37,2013-10-29 01:09:00,
2013-10-28 19:14:00,30.0,14.5,30.01,NE,34,3.5,3.5,52,0.00,CLR,SKC,0.00,WeatherDisplay:10.37,2013-10-29 01:14:00,
2013-10-28 19:19:00,29.9,14.4,30.01,North,9,3.5,3.5,52,0.00,CLR,SKC,0.00,WeatherDisplay:10.37,2013-10-29 01:19:00,
2013-10-28 19:24:00,29.8,14.3,30.01,NNE,32,3.5,3.5,52,0.00,CLR,SKC,0.00,WeatherDisplay:10.37,2013-10-29 01:24:00,
2013-10-28 19:29:00,29.7,14.2,30.01,NE,38,3.5,3.5,52,0.00,CLR,SKC,0.00,WeatherDisplay:10.37,2013-10-29 01:29:00,
2013-10-28 19:34:00,29.6,14.1,30.01,NNE,30,2.3,2.3,52,0.00,CLR,SKC,0.00,WeatherDisplay:10.37,2013-10-29 01:34:00,
2013-10-28 19:39:00,29.6,14.5,30.01,NNE,26,2.3,2.3,53,0.00,CLR,SKC,0.00,WeatherDisplay:10.37,2013-10-29 01:39:00,
2013-10-28 19:44:00,29.5,14.5,30.01,ENE,59,3.5,3.5,53,0.00,CLR,SKC,0.00,WeatherDisplay:10.37,2013-10-29 01:44:00,
2013-10-28 19:49:00,29.4,14.4,30.01,NNE,27,2.3,2.3,53,0.00,CLR,SKC,0.00,WeatherDisplay:10.37,2013-10-29 01:49:00,
2013-10-28 19:54:00,29.3,14.3,30.01,NNE,33,1.0,3.0,53,0.00,CLR,SKC,0.00,WeatherDisplay:10.37,2013-10-29 01:54:00,
2013-10-28 19:59:00,29.4,14.3,30.02,NNE,32,2.0,4.0,53,0.00,CLR,SKC,0.00,WeatherDisplay:10.37,2013-10-29 01:59:00,
2013-10-28 20:04:00,29.3,14.3,30.02,NE,36,1.0,4.0,53,0.00,CLR,SKC,0.00,WeatherDisplay:10.37,2013-10-29 02:04:00,
2013-10-28 20:09:00,29.1,14.1,30.02,NE,39,1.0,3.0,53,0.00,CLR,SKC,0.00,WeatherDisplay:10.37,2013-10-29 02:09:00,
2013-10-28 20:14:00,28.8,14.2,30.02,NE,39,2.3,2.3,54,0.00,CLR,SKC,0.00,WeatherDisplay:10.37,2013-10-29 02:14:00,
2013-10-28 20:19:00,28.7,14.1,30.02,NE,39,2.3,2.3,54,0.00,CLR,SKC,0.00,WeatherDisplay:10.37,2013-10-29 02:19:00,
2013-10-28 20:24:00,28.8,14.2,30.02,NE,34,3.5,3.5,54,0.00,CLR,SKC,0.00,WeatherDisplay:10.37,2013-10-29 02:24:00,
2013-10-28 20:29:00,28.8,14.2,30.02,NNE,32,3.5,3.5,54,0.00,CLR,SKC,0.00,WeatherDisplay:10.37,2013-10-29 02:29:00,
2013-10-28 20:34:00,28.8,14.2,30.02,NE,51,2.3,2.3,54,0.00,CLR,SKC,0.00,WeatherDisplay:10.37,2013-10-29 02:34:00,
2013-10-28 20:39:00,28.9,14.3,30.03,NE,37,2.3,2.3,54,0.00,CLR,SKC,0.00,WeatherDisplay:10.37,2013-10-29 02:39:00,
2013-10-28 20:44:00,28.9,14.3,30.03,NE,42,3.5,3.5,54,0.00,CLR,SKC,0.00,WeatherDisplay:10.37,2013-10-29 02:44:00,
2013-10-28 20:49:00,28.9,14.3,30.03,NE,42,2.3,2.3,54,0.00,CLR,SKC,0.00,WeatherDisplay:10.37,2013-10-29 02:49:00,
2013-10-28 20:54:00,28.9,14.7,30.04,NE,42,3.5,3.5,55,0.00,CLR,SKC,0.00,WeatherDisplay:10.37,2013-10-29 02:54:00,
2013-10-28 20:59:00,28.9,14.7,30.03,NE,34,2.3,2.3,55,0.00,CLR,SKC,0.00,WeatherDisplay:10.37,2013-10-29 02:59:00,
2013-10-28 21:04:00,28.9,14.3,30.04,NNE,22,3.5,3.5,54,0.00,CLR,SKC,0.00,WeatherDisplay:10.37,2013-10-29 03:04:00,
2013-10-28 21:09:00,29.0,14.4,30.04,NNE,28,2.3,2.3,54,0.00,CLR,SKC,0.00,WeatherDisplay:10.37,2013-10-29 03:09:00,
2013-10-28 21:14:00,28.9,14.7,30.04,NE,37,2.3,2.3,55,0.00,CLR,SKC,0.00,WeatherDisplay:10.37,2013-10-29 03:14:00,
2013-10-28 21:19:00,28.9,14.7,30.04,NNE,28,3.5,3.5,55,0.00,CLR,SKC,0.00,WeatherDisplay:10.37,2013-10-29 03:19:00,
2013-10-28 21:24:00,28.8,14.6,30.04,NE,45,3.5,3.5,55,0.00,CLR,SKC,0.00,WeatherDisplay:10.37,2013-10-29 03:24:00,
2013-10-28 21:29:00,28.8,14.6,30.04,NNE,30,3.5,3.5,55,0.00,CLR,SKC,0.00,WeatherDisplay:10.37,2013-10-29 03:29:00,
2013-10-28 21:34:00,28.8,14.6,30.03,NNE,29,3.5,3.5,55,0.00,CLR,SKC,0.00,WeatherDisplay:10.37,2013-10-29 03:34:00,
2013-10-28 21:40:00,28.7,14.6,30.04,NE,46,3.5,3.5,55,0.00,CLR,SKC,0.00,WeatherDisplay:10.37,2013-10-29 03:40:00,
2013-10-28 21:45:00,28.7,14.6,30.04,NNE,26,3.5,3.5,55,0.00,CLR,SKC,0.00,WeatherDisplay:10.37,2013-10-29 03:45:00,
2013-10-28 21:50:00,28.7,14.6,30.04,NE,48,3.5,3.5,55,0.00,CLR,SKC,0.00,WeatherDisplay:10.37,2013-10-29 03:50:00,
2013-10-28 21:55:00,28.6,14.9,30.04,NNE,21,3.5,3.5,56,0.00,CLR,SKC,0.00,WeatherDisplay:10.37,2013-10-29 03:55:00,
2013-10-28 22:00:00,28.7,15.0,30.04,NNE,24,3.5,3.5,56,0.00,CLR,SKC,0.00,WeatherDisplay:10.37,2013-10-29 04:00:00,
2013-10-28 22:01:00,28.7,15.0,30.04,NNE,28,3.5,3.5,56,0.00,CLR,SKC,0.00,WeatherDisplay:10.37,2013-10-29 04:01:00,
2013-10-28 22:03:00,28.7,14.6,30.04,NE,44,4.0,4.0,55,0.00,CLR,SKC,0.00,WeatherDisplay:10.37,2013-10-29 04:03:00,
2013-10-28 22:04:00,28.7,15.0,30.04,NNE,33,2.0,4.0,56,0.00,CLR,SKC,0.00,WeatherDisplay:10.37,2013-10-29 04:04:00,
2013-10-28 22:07:00,28.7,15.0,30.03,NNE,26,2.3,2.3,56,0.00,CLR,SKC,0.00,WeatherDisplay:10.37,2013-10-29 04:07:00,
2013-10-28 22:11:00,28.7,15.0,30.04,NE,40,3.5,3.5,56,0.00,CLR,SKC,0.00,WeatherDisplay:10.37,2013-10-29 04:11:00,
2013-10-28 22:16:00,28.7,15.0,30.04,NE,40,3.5,3.5,56,0.00,CLR,SKC,0.00,WeatherDisplay:10.37,2013-10-29 04:16:00,
2013-10-28 22:22:00,28.8,15.1,30.04,NE,50,3.5,3.5,56,0.00,CLR,SKC,0.00,WeatherDisplay:10.37,2013-10-29 04:22:00,
2013-10-28 22:27:00,28.8,15.1,30.03,NE,44,3.5,3.5,56,0.00,CLR,SKC,0.00,WeatherDisplay:10.37,2013-10-29 04:27:00,
2013-10-28 22:32:00,28.8,15.1,30.03,NE,39,3.5,3.5,56,0.00,CLR,SKC,0.00,WeatherDisplay:10.37,2013-10-29 04:32:00,
2013-10-28 22:37:00,28.7,15.0,30.03,NE,51,3.5,3.5,56,0.00,CLR,SKC,0.00,WeatherDisplay:10.37,2013-10-29 04:37:00,
2013-10-28 22:42:00,28.7,15.0,30.03,NE,49,2.3,2.3,56,0.00,CLR,SKC,0.00,WeatherDisplay:10.37,2013-10-29 04:42:00,
2013-10-28 22:47:00,28.7,15.4,30.03,NE,42,2.3,2.3,57,0.00,CLR,SKC,0.00,WeatherDisplay:10.37,2013-10-29 04:47:00,
2013-10-28 22:52:00,28.7,15.4,30.03,NE,47,3.5,3.5,57,0.00,CLR,SKC,0.00,WeatherDisplay:10.37,2013-10-29 04:52:00,
2013-10-28 22:57:00,28.5,15.2,30.03,NE,51,3.5,3.5,57,0.00,CLR,SKC,0.00,WeatherDisplay:10.37,2013-10-29 04:57:00,
2013-10-28 23:02:00,28.5,15.2,30.03,NE,50,3.5,3.5,57,0.00,CLR,SKC,0.00,WeatherDisplay:10.37,2013-10-29 05:02:00,
2013-10-28 23:07:00,28.3,15.0,30.03,NE,44,3.5,3.5,57,0.00,CLR,SKC,0.00,WeatherDisplay:10.37,2013-10-29 05:07:00,
2013-10-28 23:12:00,28.3,15.0,30.03,NE,34,3.5,3.5,57,0.00,CLR,SKC,0.00,WeatherDisplay:10.37,2013-10-29 05:12:00,
2013-10-28 23:17:00,28.2,14.9,30.03,NE,41,3.5,3.5,57,0.00,CLR,SKC,0.00,WeatherDisplay:10.37,2013-10-29 05:17:00,
2013-10-28 23:23:00,28.0,15.1,30.03,NE,35,3.5,3.5,58,0.00,CLR,SKC,0.00,WeatherDisplay:10.37,2013-10-29 05:23:00,
2013-10-28 23:28:00,27.9,15.0,30.03,NE,38,3.5,3.5,58,0.00,CLR,SKC,0.00,WeatherDisplay:10.37,2013-10-29 05:28:00,
2013-10-28 23:34:00,27.9,15.0,30.03,NE,47,3.5,3.5,58,0.00,CLR,SKC,0.00,WeatherDisplay:10.37,2013-10-29 05:34:00,
2013-10-28 23:39:00,27.8,14.9,30.03,NE,41,2.3,2.3,58,0.00,CLR,SKC,0.00,WeatherDisplay:10.37,2013-10-29 05:39:00,
2013-10-28 23:44:00,27.8,14.9,30.02,NNE,24,3.5,3.5,58,0.00,CLR,SKC,0.00,WeatherDisplay:10.37,2013-10-29 05:44:00,
2013-10-28 23:49:00,27.8,14.9,30.02,NE,36,3.5,3.5,58,0.00,CLR,SKC,0.00,WeatherDisplay:10.37,2013-10-29 05:49:00,
2013-10-28 23:54:00,27.9,15.0,30.03,NNE,32,1.0,5.0,58,0.00,CLR,SKC,0.00,WeatherDisplay:10.37,2013-10-29 05:54:00,
2013-10-28 23:59:00,27.9,15.0,30.02,NNE,33,1.0,3.0,58,0.00,CLR,SKC,0.00,WeatherDisplay:10.37,2013-10-29 05:59:00,